[[{"header":{"parameterUnit":"m.s-1","parameterCategory":1,"la1":30.2991,"la2":30.254,"lo1":-89.0895,"lo2":-89.0444,"dy":0.0017,"dx":0.0017,"nx":28,"ny":28,"refTime":"2024-06-21T21:00:00:Z","depth":0,"parameterNumber":2,"parameterNumberName":"U-component_of_WINDS"},"data":[0,0,0,0,0,0,0,0,0,0,0,0,0,0,0,0,0,0,0,0,0,0,0,0,0,0,0,0,0,0,0,0,0,0,0,0,0,0,0,0,0,0,0,0,0,0,0,0,0,0,0,0,0,0,0,0,0,0,-1.5432,-1.5431,0,-1.5297,-1.5295,-1.5294,-1.5241,-1.5241,-1.5242,-1.5242,-1.5101,-1.5097,-1.5093,0,0,0,0,0,0,0,0,0,0,0,0,0,-1.5645,-1.5642,-1.5432,-1.543,-1.5429,-1.5297,-1.5295,-1.5293,-1.5241,-1.5241,-1.5242,-1.5242,-1.5103,-1.5098,-1.5093,0,0,0,0,0,0,0,0,0,0,0,0,0,-1.5536,-1.564,-1.5432,-1.5387,-1.5381,-1.5297,-1.5295,-1.5293,-1.5241,-1.5241,-1.5242,-1.5243,-1.5104,-1.5098,-1.5092,-1.5043,0,0,-1.5073,-1.5071,0,0,0,0,0,0,0,0,-1.5542,-1.5528,-1.5395,-1.539,-1.5384,-1.5286,-1.5318,-1.5209,-1.5241,-1.5294,-1.5242,-1.5243,-1.5162,-1.5151,-1.5125,-1.5036,-1.503,-1.5073,-1.5069,-1.5066,-1.5065,0,0,0,0,0,0,0,-1.5549,-1.5533,-1.5378,-1.5393,-1.5386,-1.5373,-1.5358,-1.5297,-1.5227,-1.529,-1.5285,-1.527,-1.5159,-1.5131,-1.5121,-1.5028,-1.5073,-1.5067,-1.5064,-1.5061,-1.4894,-1.4893,0,0,0,0,0,0,-1.5565,-1.554,-1.5383,-1.5374,-1.5466,-1.5369,-1.5352,-1.5317,-1.5227,-1.5214,-1.527,-1.5268,-1.5141,-1.5128,-1.5116,-1.5053,-1.5066,-1.5061,-1.5057,-1.4895,-1.4894,-1.4893,0,0,0,0,0,0,-1.557,-1.5551,-1.5388,-1.5456,-1.5434,-1.5365,-1.5326,-1.5314,-1.5285,-1.5212,-1.5199,-1.5254,-1.5141,-1.5124,-1.5062,-1.5047,-1.5058,-1.5052,-1.4896,-1.4895,-1.4894,-1.4926,0,0,0,0,0,0,-1.5576,-1.5553,-1.5534,-1.5456,-1.5431,-1.5337,-1.5325,-1.5311,-1.5275,-1.5272,-1.5194,-1.5181,-1.514,-1.5071,-1.5056,-1.5039,-1.5047,-1.4897,-1.4895,-1.4894,-1.4926,-1.4926,-1.4926,0,0,0,0,0,-1.5584,-1.5547,-1.5533,-1.5514,-1.5405,-1.5336,-1.5321,-1.5275,-1.5274,-1.5254,-1.5207,-1.5184,-1.5052,-1.5065,-1.5047,-1.5028,-1.4897,-1.4896,-1.4894,-1.4926,-1.4926,-1.4926,0,0,0,0,0,0,-1.5623,-1.5536,-1.5519,-1.5456,-1.5404,-1.5327,-1.53,-1.5277,-1.5223,-1.5222,-1.5167,-1.5149,-1.5092,-1.5054,-1.507,-1.4977,-1.4973,-1.4968,-1.5003,-1.5003,-1.5003,-1.5013,-1.5042,0,0,0,0,0,-1.5625,-1.5577,-1.5503,-1.5455,-1.5429,-1.537,-1.5338,-1.5307,-1.525,-1.5227,-1.5176,-1.5122,-1.5068,-1.5033,-1.498,-1.4921,-1.4903,-1.4899,-1.4899,-1.49,-1.4895,-1.4863,-1.486,-1.4888,-1.4888,-1.4888,0,0,-1.5627,-1.5574,-1.5546,-1.5461,-1.5417,-1.5368,-1.5351,-1.5299,-1.5263,-1.5219,-1.5157,-1.5118,-1.5054,-1.4993,-1.4964,-1.496,-1.4885,-1.4898,-1.4899,-1.4894,-1.4861,-1.4858,-1.4856,-1.4886,-1.4887,-1.4887,0,0,-1.5606,-1.5561,-1.5516,-1.5473,-1.5407,-1.5368,-1.5358,-1.5285,-1.5258,-1.5195,-1.5162,-1.5118,-1.5026,-1.4982,-1.4948,-1.4914,-1.4891,-1.4899,-1.4899,-1.4868,-1.4866,-1.4863,-1.4852,-1.4848,-1.4895,-1.4895,-1.4895,0,-1.5617,-1.5542,-1.5496,-1.5447,-1.5411,-1.5372,-1.5327,-1.5287,-1.5207,-1.5183,-1.518,-1.5066,-1.502,-1.4949,-1.4941,-1.4915,-1.4901,-1.4906,-1.487,-1.4867,-1.4864,-1.4853,-1.4848,-1.4896,-1.4896,-1.4896,-1.4896,0,-1.5559,-1.5508,-1.548,-1.5405,-1.5366,-1.532,-1.5267,-1.5233,-1.5207,-1.5169,-1.5106,-1.505,-1.4985,-1.4967,-1.494,-1.4893,-1.4892,-1.4881,-1.4875,-1.4864,-1.4852,-1.4847,-1.4898,-1.4898,-1.4897,-1.4897,0,0,-1.5556,-1.5459,-1.5449,-1.5416,-1.5342,-1.5301,-1.5254,-1.5192,-1.5164,-1.5111,-1.507,-1.4995,-1.4984,-1.4946,-1.4914,-1.4887,-1.4865,-1.4878,-1.4876,-1.4878,-1.481,-1.4819,-1.4815,-1.485,-1.4849,-1.4848,-1.4816,0,-1.5525,-1.5438,-1.5397,-1.5328,-1.5281,-1.5245,-1.5203,-1.5154,-1.5117,-1.5072,-1.5032,-1.498,-1.497,-1.4946,-1.4918,-1.4874,-1.4851,-1.4875,-1.4811,-1.4809,-1.4827,-1.4808,-1.4817,-1.4789,-1.4811,-1.481,-1.4809,0,-1.5476,-1.5425,-1.5352,-1.5286,-1.5265,-1.5228,-1.5169,-1.5126,-1.507,-1.5046,-1.5005,-1.4975,-1.4924,-1.4924,-1.4853,-1.4871,-1.4843,-1.4818,-1.4815,-1.4806,-1.4808,-1.4798,-1.4779,-1.4775,-1.4802,-1.4802,-1.4803,0,-1.5482,-1.5394,-1.534,-1.5312,-1.5234,-1.5209,-1.5175,-1.512,-1.5086,-1.5034,-1.5012,-1.4955,-1.4924,-1.4881,-1.4837,-1.4841,-1.4771,-1.4767,-1.4749,-1.4751,-1.4734,-1.4736,-1.471,-1.4718,-1.4718,-1.4718,-1.4718,0,-1.545,-1.5407,-1.5342,-1.5308,-1.5259,-1.5213,-1.5166,-1.5129,-1.5081,-1.5039,-1.5005,-1.4967,-1.4912,-1.4867,-1.4833,-1.478,-1.4766,-1.4745,-1.4736,-1.4747,-1.475,-1.4727,-1.4727,-1.4717,-1.4717,-1.4718,-1.4718,0,-1.5447,-1.5401,-1.534,-1.5271,-1.5253,-1.522,-1.5162,-1.5128,-1.5092,-1.504,-1.5026,-1.4968,-1.4914,-1.4866,-1.4795,-1.4772,-1.4718,-1.4707,-1.4737,-1.4732,-1.4716,-1.4718,-1.4673,-1.4665,-1.468,-1.468,-1.468,0,-1.5429,-1.5396,-1.5325,-1.5295,-1.5262,-1.5215,-1.5181,-1.5135,-1.5101,-1.5037,-1.5011,-1.4955,-1.4908,-1.4824,-1.4775,-1.4721,-1.4708,-1.4696,-1.4699,-1.4713,-1.4708,-1.471,-1.4707,-1.4696,-1.4696,-1.4696,-1.4696,0,-1.5404,-1.5384,-1.5336,-1.5281,-1.5242,-1.5197,-1.515,-1.5128,-1.5074,-1.5037,-1.4983,-1.4946,-1.4875,-1.4819,-1.476,-1.4725,-1.4702,-1.4696,-1.4689,-1.4699,-1.4718,-1.4708,-1.4737,-1.4696,-1.4696,-1.4696,-1.4696,-1.4696,-1.5392,-1.5361,-1.5307,-1.5256,-1.5217,-1.5175,-1.514,-1.5101,-1.5054,-1.4993,-1.4969,-1.4913,-1.486,-1.4779,-1.4744,-1.47,-1.4696,-1.4686,-1.4683,-1.4681,-1.4683,-1.4727,-1.469,-1.4689,-1.4689,-1.4689,-1.4689,0,-1.5364,-1.5329,-1.5282,-1.5219,-1.518,-1.5163,-1.5111,-1.5079,-1.5031,-1.4984,-1.4939,-1.4877,-1.4824,-1.4773,-1.4718,-1.4693,-1.4681,-1.468,-1.4681,-1.4673,-1.469,-1.4702,-1.4691,-1.4691,-1.4691,-1.4691,-1.4691,-1.4691,-1.5345,-1.5292,-1.5266,-1.5194,-1.5158,-1.5104,-1.5076,-1.5038,-1.5,-1.4933,-1.489,-1.4857,-1.4809,-1.4751,-1.4702,-1.4688,-1.467,-1.4672,-1.4655,-1.4671,-1.4672,-1.4672,-1.4683,-1.4668,-1.4668,-1.4642,-1.4641,-1.4641]},{"header":{"parameterUnit":"m.s-1","parameterCategory":1,"la1":30.2991,"la2":30.254,"lo1":-89.0895,"lo2":-89.0444,"dy":0.0017,"dx":0.0017,"nx":28,"ny":28,"refTime":"2024-06-21T21:00:00:Z","depth":0,"parameterNumber":3,"parameterNumberName":"V-component_of_WINDS"},"data":[0,0,0,0,0,0,0,0,0,0,0,0,0,0,0,0,0,0,0,0,0,0,0,0,0,0,0,0,0,0,0,0,0,0,0,0,0,0,0,0,0,0,0,0,0,0,0,0,0,0,0,0,0,0,0,0,0,0,1.875,1.875,0,1.8751,1.8751,1.8751,1.8791,1.8792,1.8793,1.8794,1.8791,1.879,1.8789,0,0,0,0,0,0,0,0,0,0,0,0,0,1.8777,1.8777,1.875,1.875,1.875,1.8751,1.8751,1.8751,1.8791,1.8792,1.8793,1.8794,1.8791,1.879,1.8788,0,0,0,0,0,0,0,0,0,0,0,0,0,1.8771,1.8776,1.875,1.877,1.8772,1.8751,1.8751,1.8751,1.8791,1.8792,1.8794,1.8795,1.8791,1.879,1.8788,1.8747,0,0,1.8783,1.8783,0,0,0,0,0,0,0,0,1.8771,1.877,1.8767,1.8769,1.8771,1.8773,1.876,1.875,1.879,1.8783,1.8794,1.8796,1.8783,1.8782,1.8779,1.8747,1.8747,1.8783,1.8782,1.8782,1.8781,0,0,0,0,0,0,0,1.8771,1.877,1.875,1.8767,1.8769,1.8777,1.8778,1.8758,1.8774,1.8784,1.8787,1.8787,1.8784,1.878,1.8779,1.8747,1.8783,1.8782,1.8781,1.878,1.868,1.8679,0,0,0,0,0,0,1.877,1.877,1.875,1.875,1.8775,1.8776,1.8777,1.877,1.8775,1.8777,1.8785,1.8789,1.8782,1.8781,1.8779,1.873,1.8782,1.878,1.8779,1.8682,1.868,1.8678,0,0,0,0,0,0,1.877,1.8768,1.875,1.8761,1.8759,1.8774,1.8766,1.877,1.8766,1.8776,1.8778,1.8779,1.8784,1.8781,1.8755,1.8731,1.8779,1.8778,1.8684,1.8681,1.8679,1.8633,0,0,0,0,0,0,1.8771,1.8767,1.8753,1.876,1.8759,1.8727,1.8765,1.8768,1.8763,1.8768,1.877,1.8772,1.8785,1.8757,1.8753,1.8729,1.8777,1.8686,1.8683,1.868,1.8636,1.8629,1.8622,0,0,0,0,0,1.8772,1.8739,1.8752,1.8749,1.8741,1.8726,1.8725,1.8741,1.8761,1.8746,1.8753,1.8772,1.8735,1.8754,1.875,1.8725,1.8688,1.8684,1.868,1.864,1.863,1.8623,0,0,0,0,0,0,1.8727,1.874,1.8755,1.8724,1.8724,1.8733,1.8714,1.8731,1.8724,1.8727,1.8747,1.8747,1.8717,1.8719,1.8741,1.8685,1.8715,1.871,1.8685,1.8676,1.867,1.8669,1.8775,0,0,0,0,0,1.8714,1.8702,1.8714,1.8685,1.8685,1.8699,1.8693,1.8706,1.8706,1.8705,1.871,1.8707,1.8695,1.8686,1.8675,1.8638,1.8638,1.8619,1.8612,1.8606,1.8601,1.8579,1.857,1.8666,1.8666,1.8666,0,0,1.8686,1.8692,1.8683,1.8676,1.8678,1.8663,1.8699,1.8682,1.867,1.8702,1.8677,1.8681,1.8679,1.8647,1.8632,1.8647,1.8575,1.8601,1.8596,1.8594,1.8574,1.8565,1.8557,1.8663,1.8663,1.8664,0,0,1.8627,1.8631,1.8607,1.8608,1.861,1.862,1.8615,1.8621,1.8625,1.8601,1.8624,1.861,1.8589,1.8587,1.8583,1.8524,1.854,1.852,1.8482,1.8461,1.8453,1.8447,1.8424,1.8415,1.8515,1.8515,1.8515,0,1.8591,1.8572,1.8593,1.8574,1.857,1.86,1.8575,1.8575,1.8572,1.8568,1.8585,1.8559,1.856,1.8526,1.8512,1.8509,1.8501,1.8518,1.8453,1.8447,1.8441,1.8419,1.841,1.8512,1.8512,1.8513,1.8513,0,1.8527,1.8513,1.8493,1.8491,1.8486,1.8464,1.848,1.8471,1.8485,1.8493,1.8467,1.847,1.846,1.8454,1.8466,1.8421,1.843,1.845,1.8479,1.8429,1.8408,1.84,1.8508,1.8509,1.851,1.8511,0,0,1.8438,1.8449,1.8441,1.844,1.8445,1.8434,1.8413,1.8405,1.8396,1.8394,1.8375,1.8357,1.8376,1.8371,1.8384,1.8366,1.8316,1.8387,1.8388,1.8372,1.8265,1.8248,1.8238,1.8329,1.8327,1.8326,1.8264,0,1.8379,1.8346,1.8364,1.8328,1.8314,1.8343,1.8324,1.8324,1.8331,1.8319,1.8327,1.8313,1.8339,1.8336,1.832,1.8326,1.8294,1.8331,1.8309,1.8308,1.8306,1.8228,1.821,1.8152,1.8257,1.8255,1.8254,0,1.8306,1.8302,1.8264,1.8271,1.8266,1.8249,1.8243,1.8232,1.8232,1.8238,1.8234,1.8251,1.8229,1.826,1.823,1.8254,1.8247,1.8248,1.8246,1.8243,1.8276,1.822,1.8134,1.8124,1.8242,1.8243,1.8244,0,1.8242,1.8227,1.8203,1.8201,1.8209,1.8197,1.8199,1.8201,1.8195,1.8189,1.8184,1.8176,1.817,1.8162,1.8176,1.8197,1.8142,1.8175,1.8145,1.8144,1.813,1.813,1.8039,1.8129,1.8129,1.8129,1.813,0,1.8174,1.8149,1.8174,1.8158,1.8131,1.8152,1.8124,1.8129,1.8131,1.8116,1.814,1.8125,1.8145,1.8131,1.8142,1.8114,1.8112,1.8115,1.8117,1.8111,1.811,1.8104,1.8108,1.8127,1.8128,1.8128,1.8128,0,1.8097,1.8113,1.8087,1.8098,1.81,1.8079,1.8086,1.8071,1.8081,1.8061,1.8058,1.8072,1.8057,1.807,1.8056,1.8063,1.8025,1.8035,1.8025,1.8027,1.7995,1.7997,1.7895,1.7881,1.7982,1.7981,1.7981,0,1.8051,1.8032,1.8041,1.8033,1.8035,1.8022,1.8016,1.8036,1.8029,1.8028,1.8012,1.8,1.7991,1.7965,1.7973,1.7962,1.797,1.7935,1.7968,1.7962,1.7966,1.7966,1.7964,1.7927,1.7926,1.7925,1.7924,0,1.7966,1.7976,1.7967,1.7961,1.7953,1.7949,1.7946,1.7938,1.7959,1.7949,1.7935,1.7928,1.7914,1.79,1.7892,1.7893,1.791,1.7914,1.7906,1.7898,1.7892,1.7893,1.8004,1.7916,1.7916,1.7917,1.7918,1.7918,1.7902,1.7887,1.789,1.7879,1.788,1.7877,1.7863,1.7872,1.7861,1.7852,1.7865,1.7846,1.7846,1.7837,1.7836,1.7821,1.7835,1.7824,1.7821,1.7817,1.7811,1.7897,1.7819,1.782,1.782,1.782,1.782,0,1.7817,1.7821,1.7811,1.7808,1.7798,1.782,1.7818,1.7808,1.7792,1.7792,1.7783,1.7766,1.7753,1.776,1.7749,1.7735,1.7743,1.7731,1.7731,1.7731,1.78,1.7807,1.7725,1.7725,1.7725,1.7725,1.7725,1.7725,1.7772,1.7746,1.7756,1.773,1.7735,1.7718,1.7715,1.7712,1.7712,1.7692,1.7682,1.7688,1.769,1.7679,1.7667,1.767,1.7663,1.7647,1.7652,1.7717,1.7726,1.7735,1.7741,1.7647,1.7646,1.7584,1.7583,1.7583]}]]